UAL927 EDDF-KSFO

Flight info

Callsign UAL927
Flight time N/A
Altitude 34000
Route OBOKA5G/25C OBOKA Z28 DIBIR DCT BUDIP DCT PETIK DCT GODOS DCT RIVOT DCT OSBON/M083F360 DCT 64N010W 68N020W 70N030W 71N040W 73N060W DCT MEDPA/N0472F360 DCT 70N086W/N0481F380 65N101W 60N108W 55N113W 50N116W/N0478F400 DCT GEG DCT RBL/N0458F390 DCT MRRLO BDEGA4
Aircraft B77W/H-SDE1E2E3FGHIJ2J3J4J5M1RWXY/LB1D1

Departure

Time 2026-04-17 12:45
Airport Frankfurt Main Airport (EDDF)

Arrival

Time N/A
Airport San Francisco International Airport (KSFO)
Time Latitude Longitude Altitude Speed Heading
2026-04-17 11:47 50.04585 8.56605 370 ft 0 kts 115°
2026-04-17 12:28 50.04590 8.56588 370 ft 2 kts 115°
2026-04-17 12:28 50.04596 8.56567 370 ft 2 kts 115°
2026-04-17 12:29 50.04602 8.56546 370 ft 2 kts 120°
2026-04-17 12:29 50.04612 8.56528 370 ft 2 kts 143°
2026-04-17 12:29 50.04625 8.56516 370 ft 2 kts 160°
2026-04-17 12:29 50.04639 8.56511 370 ft 2 kts 178°
2026-04-17 12:30 50.04655 8.56513 370 ft 2 kts 195°
2026-04-17 12:30 50.04664 8.56518 370 ft 1 kts 206°
2026-04-17 12:34 50.04629 8.56494 370 ft 10 kts 204°
2026-04-17 12:34 50.04599 8.56474 370 ft 7 kts 203°
2026-04-17 12:35 50.04583 8.56462 369 ft 1 kts 208°
2026-04-17 12:35 50.04578 8.56458 369 ft 2 kts 208°
2026-04-17 12:35 50.04563 8.56445 369 ft 7 kts 211°
2026-04-17 12:35 50.04505 8.56325 368 ft 19 kts 245°
2026-04-17 12:37 50.04185 8.56268 366 ft 0 kts 158°
2026-04-17 12:37 50.04155 8.56321 365 ft 13 kts 106°
2026-04-17 12:38 50.04180 8.56498 367 ft 16 kts 71°
2026-04-17 12:38 50.04218 8.56658 368 ft 16 kts 71°
2026-04-17 12:38 50.04262 8.56846 369 ft 17 kts 70°
2026-04-17 12:38 50.04302 8.57011 370 ft 15 kts 69°
2026-04-17 12:39 50.04341 8.57169 372 ft 16 kts 69°
2026-04-17 12:39 50.04380 8.57333 373 ft 16 kts 69°
2026-04-17 12:39 50.04430 8.57549 375 ft 27 kts 69°
2026-04-17 12:39 50.04472 8.57734 376 ft 15 kts 67°
2026-04-17 12:40 50.04514 8.57896 378 ft 16 kts 69°
2026-04-17 12:40 50.04551 8.58052 379 ft 15 kts 70°
2026-04-17 12:40 50.04593 8.58225 380 ft 16 kts 70°
2026-04-17 12:40 50.04628 8.58374 381 ft 9 kts 70°
2026-04-17 12:41 50.04637 8.58410 381 ft 0 kts 71°
2026-04-17 12:43 50.04647 8.58484 382 ft 11 kts 94°
2026-04-17 12:43 50.04595 8.58582 382 ft 11 kts 153°
2026-04-17 12:43 50.04519 8.58606 382 ft 8 kts 200°
2026-04-17 12:43 50.04481 8.58542 381 ft 3 kts 244°
2026-04-17 12:44 50.04467 8.58495 381 ft 5 kts 248°
2026-04-17 12:44 50.04465 8.58491 381 ft 0 kts 248°
2026-04-17 12:44 50.04464 8.58483 381 ft 2 kts 248°
2026-04-17 12:44 50.04403 8.58245 379 ft 56 kts 251°
2026-04-17 12:45 50.04184 8.57312 372 ft 124 kts 250°
2026-04-17 12:45 50.03812 8.55771 388 ft 176 kts 251°
2026-04-17 12:45 50.03362 8.53950 909 ft 183 kts 250°
2026-04-17 12:45 50.02886 8.52087 1567 ft 192 kts 250°
2026-04-17 12:46 50.02545 8.50034 2094 ft 201 kts 263°
2026-04-17 12:46 50.02660 8.47808 2514 ft 217 kts 286°
2026-04-17 12:46 50.02983 8.45451 3028 ft 233 kts 277°
2026-04-17 12:46 50.02905 8.42874 3586 ft 249 kts 260°
2026-04-17 12:47 50.02554 8.40177 4221 ft 264 kts 259°
2026-04-17 12:47 50.02191 8.37327 4875 ft 271 kts 259°
2026-04-17 12:47 50.01837 8.34423 4985 ft 272 kts 259°
2026-04-17 12:47 50.01487 8.31503 4990 ft 270 kts 259°
2026-04-17 12:48 50.01358 8.28622 5068 ft 268 kts 278°
2026-04-17 12:48 50.01882 8.25864 5188 ft 271 kts 291°
2026-04-17 12:48 50.02644 8.23106 5583 ft 284 kts 293°
2026-04-17 12:48 50.03435 8.20388 6745 ft 276 kts 294°
2026-04-17 12:49 50.04225 8.17680 7618 ft 278 kts 294°
2026-04-17 12:49 50.05033 8.14904 8118 ft 285 kts 294°
2026-04-17 12:49 50.05912 8.12127 8200 ft 285 kts 303°
2026-04-17 12:49 50.07089 8.09651 8236 ft 291 kts 308°
2026-04-17 12:50 50.08378 8.07171 9055 ft 294 kts 308°
2026-04-17 12:50 50.09651 8.04721 9871 ft 294 kts 308°
2026-04-17 12:50 50.10940 8.02224 10184 ft 295 kts 308°
2026-04-17 12:50 50.12225 7.99728 10221 ft 292 kts 308°
2026-04-17 12:51 50.13516 7.97214 10242 ft 314 kts 308°
2026-04-17 12:51 50.14963 7.94392 10242 ft 348 kts 308°
2026-04-17 12:51 50.16502 7.91391 10246 ft 365 kts 308°
2026-04-17 12:51 50.18124 7.88224 10975 ft 374 kts 308°
2026-04-17 12:52 50.19719 7.85108 12070 ft 371 kts 308°
2026-04-17 12:52 50.21326 7.81961 12890 ft 376 kts 308°
2026-04-17 12:52 50.22968 7.78744 13635 ft 384 kts 308°
2026-04-17 12:52 50.24785 7.75649 14470 ft 388 kts 317°
2026-04-17 12:53 50.26914 7.73089 15297 ft 392 kts 327°
2026-04-17 12:53 50.29322 7.71106 16115 ft 396 kts 335°
2026-04-17 12:53 50.31836 7.69389 16923 ft 400 kts 336°
2026-04-17 12:53 50.34421 7.67639 17596 ft 408 kts 336°
2026-04-17 12:54 50.37042 7.65856 18185 ft 417 kts 335°
2026-04-17 12:54 50.39701 7.64041 18907 ft 422 kts 335°
2026-04-17 12:54 50.42393 7.62198 19668 ft 425 kts 335°
2026-04-17 12:54 50.45083 7.60351 20382 ft 429 kts 335°
2026-04-17 12:55 50.47851 7.58446 21085 ft 434 kts 335°
2026-04-17 12:55 50.50616 7.56541 21766 ft 437 kts 335°
2026-04-17 12:55 50.53396 7.54622 22426 ft 441 kts 335°
2026-04-17 12:55 50.56179 7.52504 23064 ft 444 kts 329°
2026-04-17 12:56 50.58771 7.49953 23684 ft 447 kts 326°
2026-04-17 12:56 50.61372 7.47291 24304 ft 451 kts 326°
2026-04-17 12:56 50.64023 7.44570 24925 ft 455 kts 326°
2026-04-17 12:56 50.66670 7.41851 25542 ft 458 kts 326°
2026-04-17 12:57 50.69328 7.39119 26144 ft 461 kts 326°
2026-04-17 12:57 50.71984 7.36320 26724 ft 464 kts 322°
2026-04-17 12:57 50.74448 7.32985 27312 ft 466 kts 313°
2026-04-17 12:57 50.76578 7.29078 27912 ft 468 kts 306°
2026-04-17 12:58 50.78478 7.24904 28508 ft 471 kts 304°
2026-04-17 12:58 50.80367 7.20674 29095 ft 474 kts 304°
2026-04-17 12:58 50.82281 7.16377 29727 ft 476 kts 304°
2026-04-17 12:58 50.84174 7.12120 30498 ft 473 kts 304°
2026-04-17 12:59 50.86069 7.07853 31375 ft 468 kts 304°
2026-04-17 12:59 50.87907 7.03708 32181 ft 463 kts 304°
2026-04-17 12:59 50.89752 6.99541 32951 ft 460 kts 304°
2026-04-17 12:59 50.91573 6.95426 33721 ft 457 kts 304°
2026-04-17 13:00 50.93392 6.91311 34318 ft 457 kts 304°
2026-04-17 13:00 50.95213 6.87184 34433 ft 458 kts 304°
2026-04-17 13:00 50.97017 6.83089 34377 ft 451 kts 304°
2026-04-17 13:01 51.00565 6.75019 34323 ft 441 kts 304°
2026-04-17 13:01 51.04071 6.67020 34169 ft 439 kts 304°
2026-04-17 13:02 51.07544 6.59071 34144 ft 444 kts 304°
2026-04-17 13:02 51.11079 6.50953 34208 ft 445 kts 304°
2026-04-17 13:03 51.14577 6.42895 34221 ft 444 kts 304°
2026-04-17 13:03 51.18061 6.34842 34217 ft 444 kts 304°
2026-04-17 13:04 51.21596 6.26644 34221 ft 443 kts 304°
2026-04-17 13:04 51.25078 6.18545 34217 ft 442 kts 303°
2026-04-17 13:05 51.28546 6.10432 34214 ft 442 kts 303°
2026-04-17 13:05 51.31916 6.02198 34215 ft 442 kts 302°
2026-04-17 13:06 51.35269 5.93972 34214 ft 442 kts 302°
2026-04-17 13:06 51.39031 5.86213 34209 ft 444 kts 314°
2026-04-17 13:07 51.41283 5.83036 34211 ft 446 kts 319°